User: anonymous   Login
Location: *
(1.3500°S, 147.5000°W)
Time: 23:54:05
(UTC+00:00)
Language:

OAO 2 Rocket - Orbit

View from above orbital plane
View from above orbital plane
View from above satellite
View from above satellite

Ground track
Ground track

The orbit data is extracted from the following two-line orbital elements,

1  3598U 68110B   20188.37112779  .00000007  00000-0  62585-5 0  9995
2  3598  34.9925 159.0573 0049768 274.8181  84.6830 14.54473947728918
Epoch (UTC): 06 July 2020 08:54:25
Eccentricity: 0.0049768
inclination: 34.9925°
perigee height: 676 km
apogee height: 746 km
right ascension of ascending node: 159.0573°
argument of perigee: 274.8181°
revolutions per day: 14.54473947
mean anomaly at epoch: 84.6830°
orbit number at epoch: 72891

The dashed part of the orbit path shows where the satellite is in the earth's shadow,  

DLR